Location: Easthampton
(42.2676°N, 72.6690°W)
Time: 07:15:04
(UTC+00:00)

Gurwin Techsat 1B - Pass Details

Date: 01 April 2023
Orbit: 811 x 813 km, 98.9° (Epoch: 02 June)

Event Time Altitude Azimuth Distance (km) Brightness Sun altitude
Rises 07:05:56 0° 22° (NNE) 3,347 12.7 -34.6°
Reaches altitude 10° 07:08:28 10° 31° (NNE) 2,411 11.9 -34.3°
Enters shadow 07:12:52 35° 85° (E) 1,286 9.9 -33.7°
